628  
ASUS45 KGGW 090015  
RWRGGW  
HOURLY REGIONAL WEATHER ROUNDUP FOR NORTHEAST MONTANA  
NATIONAL WEATHER SERVICE GLASGOW MONTANA  
600 PM MDT MON AUG 08 2022  
 
NOTE: "FAIR" INDICATES FEW OR NO CLOUDS BELOW 12,000 FEET WITH NO  
SIGNIFICANT WEATHER AND/OR S TO VISISBILITY.  
 
NORTHEAST MONTANA  
 
 
CITY SKY/WX TMP DP RH WIND PRES REMARKS
 
GLASGOW SUNNY 99 37 11 NW10 29.85S  
6HR MIN TEMP: 92; 6HR MAX TEMP: 101;  
 
WOLF POINT SUNNY 98 42 14 SW9 29.84S  
JORDAN N/A 96 42 15 VRB3 29.89F  
WINNETT N/A 96 32 10 SW9G17 N/A  
SIDNEY SUNNY 93 54 26 S10 29.86F  
GLENDIVE SUNNY 93 46 19 S9G18 29.92S  
 
FORT PECK REPORTS  
 
 
CITY SKY/WX TMP DP RH WIND PRES REMARKS
 
FORT PECK N/A 97 40 14 SW12G20 N/A  
THE PINES N/A 100 32 9 W7G17 N/A  
 
SOUTHEAST MONTANA  
 
 
CITY SKY/WX TMP DP RH WIND PRES REMARKS
 
BILLINGS SUNNY 94 43 17 SW9 29.99S  
MILES CITY SUNNY 95 41 15 SW13 29.92S  
BAKER SUNNY 92 44 19 SW3 29.98F  
LIVINGSTON SUNNY 92 32 12 W15 30.08R  
 
CENTRAL MONTANA  
 
 
CITY SKY/WX TMP DP RH WIND PRES REMARKS
 
HAVRE SUNNY 97 33 10 W7G23 29.88S  
LEWISTOWN SUNNY 91 32 12 MISG 30.03R  
GREAT FALLS SUNNY 95 30 10 NW13 29.98R  
CUT BANK SUNNY 90 36 14 W15G26 29.99S  
HELENA SUNNY 96 25 8 W14G22 30.00F  
BUTTE SUNNY 88 22 9 N6 30.17R  
BOZEMAN SUNNY 89 34 14 VRB6 30.07F  
 
WESTERN MONTANA  
 
 
CITY SKY/WX TMP DP RH WIND PRES REMARKS
 
MISSOULA SUNNY 97 34 11 W9 29.98F  
KALISPELL NOT AVBL  
 
NORTH DAKOTA  
 
 
CITY SKY/WX TMP DP RH WIND PRES REMARKS
 
WILLISTON CLEAR 94 46 19 S15 29.87F  
DICKINSON SUNNY 91 46 21 S12 29.95F  
MINOT SUNNY 91 51 25 S15 29.89S  
BISMARCK SUNNY 91 51 25 S10 29.96F  
 
SOUTHERN SASKATCHEWAN  
 
 
CITY SKY/WX TMP DP RH WIND PRES REMARKS
 
REGINA SUNNY 90 50 25 NW18G28 29.79R  
ESTEVAN SUNNY 90 54 29 S12G21 29.81F  
SWIFT CURRENT SUNNY 91 43 18 NW15G21 29.87R  
 
 
 
CLICK HERE TO GO TO PREVIOUS BULLETINS.

The Nexlab MT Page Main Text Page